FW6710 Weather Reports


time (UTC)temp
C
wind
direction
speed
KPH
gust
KPH
rain 1hr
cm
rain 24hr
cm
rain mn
cm
humidity
%
barometer
mb
20260507221602 15 0.0 0.0 0.00 0.03 0.00 84 1012.1
20260507220059 15 0.0 0.0 0.00 0.03 0.00 83 1012.0
20260507214557 15 0.0 0.0 0.00 0.03 0.03 83 1011.9
20260507213058 15 0.0 0.0 0.00 0.03 0.03 81 1011.8
20260507211611 16 0.0 0.0 0.00 0.03 0.03 81 1011.9
20260507204559 16 0.0 0.0 0.00 0.03 0.03 80 1011.9
20260507203059 16 0.0 0.0 0.00 0.03 0.03 80 1012.1
20260507201601 16 0.0 0.0 0.00 0.03 0.03 78 1012.1
20260507200107 17 0.0 0.0 0.00 0.03 0.03 77 1012.1
20260507194601 17 0.0 0.0 0.00 0.03 0.03 77 1012.2
20260507193102 17 0.0 0.0 0.00 0.03 0.03 76 1011.9
20260507191600 17 0.0 0.0 0.00 0.03 0.03 75 1011.9
20260507184601 17 0.0 0.0 0.00 0.03 0.03 74 1011.7
20260507183100 18 0.0 0.0 0.00 0.03 0.03 73 1011.4
20260507181600 18 0.0 0.0 0.00 0.03 0.03 73 1011.6
20260507180106 18 0.0 0.0 0.00 0.03 0.03 73 1011.3
20260507174636 18 0.0 0.0 0.00 0.03 0.03 74 1011.1
20260507173100 18 0.0 0.0 0.00 0.03 0.03 75 1011.0
20260507171627 19 0.0 0.0 0.00 0.03 0.03 74 1011.1
20260507164601 21 0.0 0.0 0.00 0.03 0.03 72 1011.0
20260507163059 21 0.0 0.0 0.00 0.03 0.03 70 1010.9
20260507161559 21 0.0 0.0 0.00 0.03 0.03 67 1011.0
20260507160116 21 0.0 0.0 0.00 0.03 0.03 61 1011.0
20260507154600 21 0.0 0.0 0.00 0.03 0.03 62 1011.2
20260507153100 21 0.0 0.0 0.00 0.03 0.03 65 1011.2
20260507151601 21 0.0 0.0 0.00 0.03 0.03 65 1011.1
20260507150058 21 0.0 0.0 0.00 0.03 0.03 62 1011.0
20260507144559 21 0.0 0.0 0.00 0.03 0.03 62 1011.3
20260507143119 21 0.0 0.0 0.00 0.03 0.03 61 1011.2
20260507141633 21 0.0 0.0 0.00 0.03 0.03 65 1011.2
20260507140113 21 0.0 0.0 0.00 0.03 0.03 63 1011.3
20260507134612 21 0.0 0.0 0.00 0.03 0.03 63 1011.4
20260507133106 21 0.0 0.0 0.00 0.03 0.03 62 1011.3
20260507131620 21 0.0 0.0 0.00 0.03 0.03 63 1011.3
20260507130107 20 0.0 0.0 0.00 0.03 0.03 62 1011.3
20260507124602 21 0.0 0.0 0.00 0.03 0.03 63 1011.2
20260507123105 21 0.0 0.0 0.00 0.03 0.03 62 1011.3
20260507121601 21 0.0 0.0 0.00 0.03 0.03 60 1011.3
20260507120059 21 0.0 0.0 0.00 0.03 0.03 61 1011.4
20260507114558 21 0.0 0.0 0.00 0.03 0.03 60 1011.4
20260507113128 21 0.0 0.0 0.00 0.03 0.03 60 1011.5
20260507111559 21 0.0 0.0 0.00 0.03 0.03 59 1011.5
20260507110103 21 0.0 0.0 0.00 0.03 0.03 60 1011.7
20260507104614 21 0.0 0.0 0.00 0.03 0.03 60 1011.7
20260507103100 21 0.0 0.0 0.00 0.03 0.03 62 1011.7
20260507101600 20 0.0 0.0 0.00 0.03 0.03 63 1011.9
20260507100103 20 0.0 0.0 0.00 0.03 0.03 66 1011.8
20260507094606 20 0.0 0.0 0.00 0.03 0.03 66 1011.8
20260507093057 19 0.0 0.0 0.00 0.03 0.03 69 1011.8
20260507091600 19 0.0 0.0 0.00 0.03 0.03 71 1011.8
20260507090056 19 0.0 0.0 0.00 0.03 0.03 70 1011.8
20260507084602 19 0.0 0.0 0.00 0.03 0.03 70 1011.8
20260507083100 19 0.0 0.0 0.00 0.03 0.03 75 1011.6
20260507081558 19 0.0 0.0 0.00 0.03 0.03 71 1011.3
20260507080058 18 0.0 0.0 0.00 0.03 0.03 72 1011.2
20260507074602 18 0.0 0.0 0.00 0.03 0.03 70 1011.1
20260507073109 17 0.0 0.0 0.00 0.03 0.03 75 1011.1
20260507071600 17 0.0 0.0 0.00 0.03 0.03 79 1011.3
20260507070110 16 0.0 0.0 0.00 0.03 0.03 82 1011.3
20260507064606 15 0.0 0.0 0.00 0.03 0.03 87 1011.2
20260507063059 15 0.0 0.0 0.00 0.03 0.03 91 1011.3
20260507061559 15 0.0 0.0 0.00 0.03 0.03 92 1011.2
20260507060059 15 0.0 0.0 0.00 0.03 0.03 92 1011.2
20260507054600 15 0.0 0.0 0.00 0.05 0.03 92 1011.0
20260507053100 15 0.0 0.0 0.00 0.05 0.03 92 1010.9
20260507051608 15 0.0 0.0 0.00 0.05 0.03 92 1010.8
20260507050110 15 0.0 0.0 0.00 0.05 0.03 92 1010.6
20260507044600 15 0.0 0.0 0.00 0.20 0.03 92 1010.3
20260507043100 15 0.0 0.0 0.00 0.20 0.03 92 1010.0
20260507041601 14 0.0 0.0 0.00 0.20 0.03 92 1010.1
20260507040106 14 0.0 0.0 0.00 0.20 0.03 92 1009.9
20260507034605 14 0.0 0.0 0.00 0.20 0.03 91 1010.0
20260507033103 14 0.0 0.0 0.00 0.20 0.03 91 1009.9
20260507031557 14 0.0 0.0 0.00 0.20 0.03 90 1009.9
20260507030056 14 0.0 0.0 0.00 0.20 0.03 90 1009.9
20260507024558 15 0.0 0.0 0.00 0.20 0.03 89 1009.8
20260507023057 15 0.0 0.0 0.00 0.20 0.03 89 1009.7
20260507021606 15 0.0 0.0 0.00 0.20 0.03 88 1009.7
20260507020059 15 0.0 0.0 0.03 0.20 0.03 88 1009.7
20260507014559 15 0.0 0.0 0.03 0.20 0.03 87 1009.8
20260507013100 16 0.0 0.0 0.03 0.20 0.03 86 1009.7
20260507011559 16 0.0 0.0 0.03 0.20 0.03 83 1009.9
20260507010057 16 0.0 0.0 0.00 0.18 0.00 81 1009.7
20260507004559 17 0.0 0.0 0.00 0.18 0.00 78 1009.8
20260507003059 17 0.0 0.0 0.00 0.18 0.00 79 1009.8
20260507001606 17 0.0 0.0 0.00 0.18 0.00 77 1009.9
20260507000101 17 0.0 0.0 0.00 0.18 0.00 77 1010.0
20260506234624 17 0.0 0.0 0.00 0.18 0.00 76 1009.7
20260506233100 17 0.0 0.0 0.00 0.18 0.00 76 1009.6
20260506231557 17 0.0 0.0 0.00 0.18 0.00 75 1009.5
20260506230100 17 0.0 0.0 0.00 0.18 0.00 75 1009.8
20260506224556 17 0.0 0.0 0.00 0.18 0.00 75 1009.7
20260506223102 17 0.0 0.0 0.00 0.18 0.00 74 1009.7